Location: B�rgermoos
(47.6500°N, 9.0667°E)
Time: 07:02:11
(UTC+00:00)

Vanguard 3 - Pass Details

Date: 05 August 2021
Orbit: 510 x 3260 km, 33.3° (Epoch: 16 September)

Event Time Altitude Azimuth Distance (km) Brightness Sun altitude
Rises 21:53:07 0° 275° (W) 6,697 12.2 -22.1°
Reaches altitude 10° 21:58:17 10° 265° (W) 5,936 11.7 -22.5°
Maximum altitude 22:12:48 28° 216° (SW) 4,810 10.7 -23.4°
Enters shadow 22:19:23 23° 190° (S) 5,005 10.6 -23.7°
